Create Custom Reports and Graphics: Custom Report

Belmont 8000'

Squaw Valley

5/9/26 12:30 AM (-07:00)
Updated Every 15 Minutes
Temp 48.3 °F   1.9
RH 67 %   44
Dew Pt 37.9 °F   27.0
Wet Bulb 42.8 °F   9.8
Wind Dir NE | 34 °
Wind Spd 2.9 mph   4.5
Wind Gust 7.5 mph   2.8
WindChill 48.0 °F   5.3
Daily Min Temp 48.3 °F   2.8
Daily Max Temp 49.9 °F   3.2
Latest Rain 0.00 In
Daily Rain 0.00 In
New Snow (HN) 0.1 in
Snow Depth (HS) 38.9 in

Last 24 Hours

OV-Belmont 8000'

Hourly Data | America/Los_Angeles
as of 5/9/26 12:33 AM PDT
Date & Time Temp (°F) RH (%) Dew Pt (°F) Wet Bulb (°F) Wind Dir (°) Wind Spd (mph) Wind Gust (mph) WindChill (°F) Latest Rain (In) New Snow (HN) (in) Snow Depth (HS) (in) Daily Min Temp (°F) Daily Max Temp (°F) Daily Rain (In)
5/9/26 - 0000 49.8 65 38.4 43.6 NNE | 19 3.6 7.9 48.6 0.00 0.1 38.9 43.6 61.7 0.00
5/8/26 - 2300 49.8 60 36.7 42.9 N | 360 2.1 4.1 49.6 0.00 0.1 38.8 43.6 61.7 0.00
5/8/26 - 2200 49.5 56 34.3 41.7 NNW | 330 1.9 4.7 48.4 0.00 0.0 38.8 43.6 61.7 0.00
5/8/26 - 2100 47.6 62 35.2 41.2 NW | 315 7.6 13.6 44.4 0.00 0.1 38.9 43.6 61.7 0.00
5/8/26 - 2000 49.0 70 39.8 44.0 WNW | 286 4.8 12.1 48.6 0.00 0.1 38.9 43.6 61.7 0.00
5/8/26 - 1900 52.2 62 39.5 45.2 WNW | 284 5.3 15.3 54.2 0.00 0.1 38.8 43.6 61.7 0.00
5/8/26 - 1800 55.1 43 32.8 43.6 WSW | 255 8.2 15.8 57.8 0.00 0.1 38.8 43.6 61.7 0.00
5/8/26 - 1700 60.2 32 30.6 45.0 WSW | 243 6.6 14.2 60.3 0.00 0.0 38.4 43.6 61.7 0.00
5/8/26 - 1600 60.4 29 28.2 44.3 WSW | 245 8.2 15.6 59.1 0.00 0.0 38.4 43.6 60.7 0.00
5/8/26 - 1500 59.2 27 24.9 42.7 SW | 229 7.7 16.6 58.6 0.00 0.0 39.1 43.6 60.7 0.00
5/8/26 - 1400 57.7 26 23.4 41.7 SW | 236 8.8 16.6 57.7 0.00 0.0 39.8 43.6 59.8 0.00
5/8/26 - 1300 57.4 24 21.3 41.0 SW | 228 7.4 17.3 57.7 0.00 0.0 40.1 43.6 59.8 0.00
5/8/26 - 1200 56.7 26 22.3 40.9 SW | 232 7.1 13.7 56.3 0.00 0.0 40.4 43.6 58.2 0.00
5/8/26 - 1100 56.7 25 21.2 40.6 SSW | 205 7.0 15.3 53.7 0.00 0.0 40.4 43.6 56.8 0.00
5/8/26 - 1000 53.3 25 18.6 38.3 SSW | 203 6.7 12.4 50.2 0.00 0.1 40.7 43.6 53.4 0.00
5/8/26 - 0900 50.9 25 16.1 36.5 SSW | 203 6.9 12.8 46.7 0.00 0.1 40.6 43.6 51.1 0.00
5/8/26 - 0800 48.4 26 15.2 35.0 SSW | 205 8.1 13.8 43.5 0.00 0.1 40.7 43.6 48.4 0.00
5/8/26 - 0700 46.0 31 17.1 34.2 SSW | 202 9.3 16.9 40.4 0.00 0.1 40.8 43.6 46.7 0.00
5/8/26 - 0600 45.0 30 15.4 33.3 SSW | 196 10.7 18.3 39.1 0.00 0.1 40.8 43.6 46.7 0.00
5/8/26 - 0500 43.7 34 17.3 33.0 SSW | 200 10.3 15.1 39.4 0.00 0.1 40.7 43.7 46.7 0.00
5/8/26 - 0400 45.3 30 16.0 33.6 SSW | 200 11.3 18.7 39.9 0.00 0.1 40.7 44.0 46.7 0.00
5/8/26 - 0300 44.9 30 15.4 33.2 SSW | 200 12.4 18.0 39.1 0.00 0.1 40.8 44.0 46.7 0.00
5/8/26 - 0200 46.4 27 14.1 33.7 SW | 222 9.4 14.7 41.5 0.00 0.1 40.6 45.5 46.7 0.00
5/8/26 - 0100 45.8 26 13.1 33.2 SW | 228 7.2 12.0 42.3 0.00 0.1 40.7 45.5 46.7 0.00
5/8/26 - 0000 45.6 30 15.8 33.7 SW | 218 7.4 12.9 41.9 0.00 0.1 40.7 44.7 58.8 0.00
Max 60.4 70 39.8 45.2 - 12.4 18.7 60.3 0.00 0.1 40.8 45.5 61.7 0.00
Avg 51.1 37 24.1 39.0 - 7.4 13.9 48.8 0.00 0.1 39.8 - - -
Min 43.7 24 13.1 33.0 - 1.9 4.1 39.1 0.00 0.0 38.4 43.6 46.7 0.00
Total - - - - - - - - 0.00 - - - - -

Last 30 Days

OV-Belmont 8000'

Daily Data | America/Los_Angeles
as of 5/9/26 12:33 AM PDT
Date Daily Max Temp (°F) Time of Max Temp Daily Min Temp (°F) Time of Min Temp Daily Rain (In) Season Precip (In) New Snow (HN) (in) Snow Depth (HS) (in) Wind Spd (mph) Daily Max Wind (mph) Time of Max Wind Max Wind Dir (°) Daily Max RH (%) Daily Min RH (%) Wet Bulb (°F) WetB Hrs <28F (hrs) MinBV Day (V)
5/8/26 61.7 1645 43.6 0500 0.00 101.30 0.1 38.9 7.4 18.7 0328 SSW | 197 74 21 39.1 0.0 12.9
5/7/26 58.8 1416 44.7 2302 0.00 101.30 0.1 40.7 10.0 24.6 1828 WSW | 250 67 21 41.1 0.0 12.9
5/6/26 65.0 1707 42.4 0550 0.00 101.30 0.0 43.0 7.1 19.7 1356 NNE | 27 83 31 43.2 0.0 12.8
5/5/26 54.3 1710 31.8 0045 0.02 101.30 0.0 45.6 8.0 21.0 1541 N | 5 100 55 38.0 0.0 12.9
5/4/26 40.5 0839 31.3 2024 0.95 101.30 2.1 48.9 5.3 18.5 1653 WSW | 247 100 70 34.0 0.0 13.0
5/3/26 53.4 1248 33.1 1545 0.24 100.30 0.1 46.8 5.5 33.6 1406 S | 170 100 45 37.4 0.0 12.8
5/2/26 53.7 1154 40.7 2315 0.12 100.10 0.0 47.6 7.9 23.5 1156 S | 191 93 44 40.4 0.0 12.8
5/1/26 60.0 1700 39.0 0423 0.00 100.00 0.0 49.0 4.2 18.2 1110 E | 94 79 24 37.6 0.0 12.9
4/30/26 59.5 1609 37.0 0605 0.00 100.00 0.1 50.7 3.4 18.4 1146 E | 88 90 27 37.6 0.0 12.8
4/29/26 56.9 1449 31.3 0420 0.00 100.00 0.1 52.1 3.5 16.7 1604 WSW | 241 96 28 36.0 0.0 12.8
4/28/26 47.8 1240 26.7 0349 0.01 100.00 0.0 53.2 3.8 16.1 1526 WNW | 293 100 38 31.8 3.7 12.8
4/27/26 42.7 1500 21.7 0633 0.02 100.00 0.2 54.0 5.3 17.3 0216 SE | 130 100 52 27.9 11.1 12.9
4/26/26 33.1 1235 25.0 0558 0.19 100.00 1.5 56.1 13.0 39.0 1527 ESE | 115 100 80 26.9 15.7 12.9
4/25/26 43.6 1401 27.0 2359 0.00 99.80 0.0 54.2 10.4 28.6 1131 S | 191 100 28 30.4 4.1 12.8
4/24/26 49.3 1356 32.3 1925 0.20 99.80 0.5 55.1 4.4 22.4 1543 SW | 225 100 50 34.0 0.0 12.8
4/23/26 50.6 1403 22.7 0358 0.00 99.60 0.0 57.2 3.1 11.9 1811 SW | 215 100 43 31.5 7.8 12.9
4/22/26 31.7 1514 19.9 0251 0.25 99.60 9.0 60.6 9.8 32.2 0502 ESE | 107 98 89 24.0 20.9 12.9
4/21/26 34.8 0001 22.4 2213 1.46 99.30 6.6 61.7 10.1 32.7 2004 S | 176 99 77 27.3 14.1 12.9
4/20/26 48.4 1547 34.1 2256 0.00 97.90 0.2 51.8 14.0 36.3 0123 SSE | 167 83 32 33.7 0.0 12.8
4/19/26 52.6 1229 35.5 0406 0.00 97.90 0.1 53.1 13.9 34.6 2159 NE | 56 79 33 34.7 0.0 12.8
4/18/26 59.4 1321 32.0 0617 0.00 97.90 0.1 55.2 3.2 16.3 2355 SSW | 204 86 25 34.5 5.0 12.9
4/17/26 53.7 1637 17.8 0517 0.00 97.90 0.0 57.8 4.0 23.4 0122 ENE | 64 72 15 24.2 15.8 12.9
4/16/26 42.7 1638 19.8 2354 0.00 97.90 0.1 59.7 10.0 37.5 0235 S | 170 98 20 25.2 20.0 12.9
4/15/26 39.6 1353 28.7 2343 0.00 97.90 0.0 62.4 17.4 45.0 2132 SE | 132 88 37 29.0 9.8 12.9
4/14/26 40.2 1546 24.3 0411 0.00 97.90 0.0 65.7 7.0 24.5 1650 SW | 216 98 35 28.4 13.3 12.9
4/13/26 37.0 1511 22.8 0001 0.18 97.90 0.0 71.5 3.1 14.3 2038 NW | 322 100 91 27.9 14.2 12.9
4/12/26 26.6 1328 20.0 0322 2.01 97.70 9.4 77.8 6.2 32.2 0031 SSE | 154 100 99 22.6 24.0 13.0
4/11/26 31.8 1209 23.6 2359 1.84 95.70 8.4 61.8 12.2 46.9 1643 E | 101 100 100 28.9 3.0 12.9
4/10/26 40.1 1145 28.4 2319 1.21 93.80 4.5 49.8 11.4 38.7 1346 SE | 136 100 80 32.7 0.0 12.9
4/9/26 47.2 1151 36.3 2359 0.11 92.60 0.3 44.3 7.0 33.2 2245 S | 172 97 57 38.2 0.0 12.8
Max 65.0 - 44.7 - 2.01 101.30 9.4 77.8 17.4 46.9 - - 100 100 43.2 24.0 13.0
Avg - - - - - - 1.5 54.2 7.7 - - - - - 32.6 - -
Min 26.6 - 17.8 - 0.00 92.60 0.0 38.9 3.1 11.9 - - 67 15 22.6 0.0 12.8
Calm: 0.0%
Calm: 1.0%